Regional Weather Roundup
Issued by NWS

Home | Current Version | Previous Version | Graphics & Text | Print | Product List | Glossary On
Versions: 1 2 3 4 5 6 7 8 9 10 11 12 13 14 15 16 17 18 19 20 21 22 23 24 25 26 27 28 29 30 31 32 33 34 35 36 37 38 39 40 41 42 43 44 45 46 47 48 49 50
016
ASUS43 KMPX 031710
RWRMN
WEATHER ROUNDUP FOR MINNESOTA
NATIONAL WEATHER SERVICE TWIN CITIES/CHANHASSEN MN
1100 AM CST SAT DEC 03 2016


NOTE: "FAIR" INDICATES FEW OR NO CLOUDS BELOW 12,000 FEET WITH NO
SIGNIFICANT WEATHER AND/OR OBSTRUCTIONS TO VISIBILITY. N/A MEANS
CURRENT SKY AND/OR WEATHER CONDITIONS ARE NOT AVAILABLE.

MNZ060>063-068>070-031800-
   Twin Cities Metro

CITY           SKY/WX    TMP DP  RH WIND       PRES   REMARKS
TWIN CITIES    CLOUDY    29  18  63 S3        30.29F
ST PAUL        CLOUDY    30  22  72 S5        30.31S WCI  25
CRYSTAL        CLOUDY    30  19  63 SW5       30.28S WCI  25
BLAINE         CLOUDY    30  23  74 SW5       30.28S WCI  25
LAKEVILLE        N/A     28  19  69 SW5       30.28F WCI  23
EDEN PRAIRIE   CLOUDY    30  19  63 SW7       30.28S WCI  23
SOUTH ST PAUL  CLOUDY    31  21  66 SW6       30.29F WCI  25
LAKE ELMO      CLOUDY    30  23  74 CALM      30.28F
$$
MNZ001>005-007-008-013>017-022>024-027-028-031800-
   Northwest Minnesota

CITY           SKY/WX    TMP DP  RH WIND       PRES   REMARKS
BEMIDJI        CLOUDY    24  19  81 S8        30.18F WCI  15
HALLOCK        CLOUDY    28  25  86 S20G25    30.12F WCI  15
ROSEAU         PTSUNNY   27  21  80 S16       30.16S WCI  14
WARROAD        CLOUDY    27  21  80 S14       30.17S WCI  15
THIEF RVR FALL CLOUDY    25  19  78 S15       30.16F WCI  13
CROOKSTON      CLOUDY    28  21  74 S17G23    30.16F WCI  16
FOSSTON        CLOUDY    23  18  80 S12       30.17F WCI  12
DETROIT LAKES  CLOUDY    27  21  80 S13       30.17F WCI  16
MOORHEAD       CLOUDY    27  19  74 S12       30.18F WCI  16
PARK RAPIDS    CLOUDY    25  16  68 S9        30.19F WCI  15
$$
MNZ006-009>011-018-025>026-031800-
   North Central Minnesota

CITY           SKY/WX    TMP DP  RH WIND       PRES   REMARKS
BAUDETTE       CLOUDY    27  20  75 S12       30.18S WCI  17
FLAG ISLAND    CLOUDY    28  21  74 S18       30.15F WCI  16
INTL FALLS     CLOUDY    25  18  74 S6        30.20F WCI  18
WASKISH        CLOUDY    25  19  80 S5        30.20S WCI  19
BIG FORK       CLOUDY    27  19  74 S7        30.21F WCI  19
LONGVILLE      CLOUDY    25  18  74 SW6       30.22F WCI  18
GRAND RAPIDS   FLURRIES  26  20  77 S8        30.23F WCI  18
CRANE LAKE     CLOUDY    25  19  80 CALM      30.25F
ORR            CLOUDY    25  18  74 CALM      30.19F
COOK           CLOUDY    27  21  80 SE5       30.22F WCI  21
$$
MNZ012-019>021-037-031800-
   Northeast Minnesota

CITY           SKY/WX    TMP DP  RH WIND       PRES   REMARKS
DULUTH         FLURRIES  27  23  85 W5        30.23S WCI  22
ELY            CLOUDY    23  23 100 W3        30.22F
HIBBING        CLOUDY    25  20  81 SE6       30.22F WCI  18
EVELETH        MIX PCPN  26  20  78 SE3       30.23F
DULUTH HARBOR  FLURRIES  30  27  86 W3        30.28F
TWO HARBORS    CLOUDY    30  27  86 CALM      30.23S
SILVER BAY     CLOUDY    28  25  86 CALM      30.23S
GRAND MARAIS     N/A     34  25  69 CALM      30.25F
G MARAIS ARPRT CLOUDY    25  19  80 CALM      30.20F
$$
MNZ029>031-032-039>041-046>048-054>057-064-031800-
   West Central Minnesota

CITY           SKY/WX    TMP DP  RH WIND       PRES   REMARKS
FERGUS FALLS   PTSUNNY   27  19  74 S10       30.23F WCI  17
WHEATON        MOSUNNY  N/A N/A N/A SE16      30.19F
MORRIS         CLOUDY    28  21  74 SE13      30.19F WCI  18
ALEXANDRIA     CLOUDY    26  19  74 S12       30.21F WCI  16
ELBOW LAKE     FAIR      28  21  73 E12       30.19F WCI  18
WADENA         CLOUDY    25  18  74 SE8       30.20F WCI  16
GLENWOOD       SUNNY     27  19  74 SE8       30.22F WCI  18
APPLETON       MOSUNNY   30  21  69 SE10      30.20F WCI  21
BENSON         CLOUDY    28  19  69 S9        30.21F WCI  20
ORTONVILLE     SUNNY     28  23  80 SE8G16    30.18F WCI  20
MADISON        SUNNY     34  27  75 SE15      30.20F WCI  24
WILLMAR        CLOUDY    30  23  74 SE6       30.24F WCI  24
$$
MNZ033>034-036-042>043-049>051-058-059-031800-
   Central Minnesota

CITY           SKY/WX    TMP DP  RH WIND       PRES   REMARKS
ST CLOUD       CLOUDY    27  19  72 S9        30.25F WCI  18
PAYNESVILLE    CLOUDY    28  21  74 S9        30.25S WCI  19
AITKIN         CLOUDY    30  19  64 SW7       30.22F WCI  23
PINE RIVER     CLOUDY    25  19  80 S3        30.25F
BRAINERD       CLOUDY    26  18  71 S10       30.23F WCI  16
STAPLES        CLOUDY    25  18  74 SW8       30.22F WCI  16
LONG PRAIRIE   CLOUDY    27  19  74 SE6       30.23F HAZE    WCI  20
LITTLE FALLS   CLOUDY    27  19  74 S6        30.24F WCI  20
LITCHFIELD     CLOUDY    28  21  74 CALM      30.26F
BUFFALO        CLOUDY    28  19  68 S5G17     30.29R WCI  23
MAPLE LAKE     CLOUDY    29  22  74 S3        30.28R
$$
MNZ037-044-045-052-053-031800-
   East Central Minnesota

CITY           SKY/WX    TMP DP  RH WIND       PRES   REMARKS
PRINCETON      CLOUDY    30  23  74 CALM      30.26F
MORA           PTSUNNY   30  25  80 SW3       30.27F
CAMBRIDGE      CLOUDY    30  21  69 CALM      30.25F
RUSH CITY      CLOUDY    28  25  86 CALM      30.27F
MOOSE LAKE     CLOUDY    30  27  86 CALM      30.23F
HINCKLEY       CLOUDY    30  27  86 CALM      30.26F
CLOQUET        FLURRIES  28  23  80 SW3       30.23F
MCGREGOR       CLOUDY    28  23  80 S3        30.24F
$$
MNZ071>073-080-081-089-090-097-098-031800-
   Southwest Minnesota

CITY           SKY/WX    TMP DP  RH WIND       PRES   REMARKS
MONTEVIDEO     SUNNY     30  25  80 S12       30.23F WCI  21
GRANITE FALLS  SUNNY     32  25  74 SE12      30.24F WCI  23
CANBY          MOSUNNY   32  26  78 E14       30.20F WCI  22
MARSHALL       SUNNY     32  23  69 SE14      30.21F WCI  22
REDWOOD FALLS  MOSUNNY   31  21  66 SE8       30.24F WCI  23
OLIVIA         CLOUDY    30  21  69 E5        30.23F WCI  25
PIPESTONE      MOSUNNY   34  28  80 S10       30.16F WCI  26
WINDOM         SUNNY     32  25  74 SE7       30.22F WCI  26
WORTHINGTON    MOSUNNY   33  28  81 S12       30.21F WCI  24
JACKSON        SUNNY     30  25  80 SE8       30.23F WCI  23
TRACY          SUNNY     32  26  80 SE12      30.21F WCI  23
SLAYTON        SUNNY     31  28  88 SE14      30.20F WCI  21
$$
MNZ065>067-074>077-082>085-091>093-031800-
   South Central Minnesota

CITY           SKY/WX    TMP DP  RH WIND       PRES   REMARKS
MANKATO        CLOUDY    30  21  69 CALM      30.28F
NEW ULM        CLOUDY    28  19  69 CALM      30.26F
ST JAMES       SUNNY     30  25  80 SE7       30.27F WCI  23
FAIRMONT       SUNNY     31  23  72 E6        30.26F WCI  25
GLENCOE        CLOUDY    31  24  75 S3        30.27F
FARIBAULT      CLOUDY    28  19  69 CALM      30.28F
OWATONNA       CLOUDY    28  19  69 W6        30.28F WCI  22
WASECA         CLOUDY    32  25  74 NE5       30.29S WCI  27
ALBERT LEA     CLOUDY    34  25  69 CALM      30.28R
$$
MNZ078>079-086>088-094>096-031800-
   Southeast Minnesota

CITY           SKY/WX    TMP DP  RH WIND       PRES   REMARKS
ROCHESTER      CLOUDY    29  22  75 NW6       30.27F WCI  23
RED WING       CLOUDY    30  19  64 W5        30.29S WCI  25
STANTON        CLOUDY    31  21  68 SW6       30.29S WCI  25
DODGE CENTER   CLOUDY    28  21  74 W3        30.27F
WINONA         CLOUDY    32  23  69 CALM      30.30F
AUSTIN         CLOUDY    30  21  69 N7        30.27S WCI  23
PRESTON        CLOUDY    29  20  66 W5        30.28S WCI  24
$$
ABBREVIATIONS USED IN REMARKS
   TC - TEMPERATURES IN CELSIUS
  WCI - WIND CHILL INDEX
   HX - HEAT INDEX
  VSB - VISIBILITY
$$




USA.gov is the U.S. government's official web portal to all federal, state and local government web resources and services.